IW5EFR Vecchia di Pontedera IT current weather conditions

sailwx.info

Wind from 140

Air temperature 18.3° C
Dewpoint 13.6° C

Last reported at 2017-Mar-25 08:53 UTC.
Time now 2017-Mar-25 09:57 UTC

Location: N 43°37' E 010°38'.
View on Google Maps.

See reports from other nearby stations

  
Tides and Currents Weather Stations Pressure Air Temp Water Temp Dewpoint Dewpoint Depression Visibility Wind Speed Wind Dir Waves Ship Positions
date/time (UTC)wind fromknots sea level pressurealtimeterstation pressurevisibilityair tempwater tempwave heightnotes
2017-Mar-25 08:53 140 18.3
2017-Mar-25 08:48 140 17.8
2017-Mar-25 08:43 140 17.2
2017-Mar-25 08:38 140 1 gusting 2 17.2
2017-Mar-25 08:33 140 16.7
2017-Mar-25 08:28 140 16.7
2017-Mar-25 08:23 140 1 gusting 3 16.1
2017-Mar-25 08:18 140 15.6
2017-Mar-25 08:13 140 3 gusting 3 15.0
2017-Mar-25 08:08 140 0 gusting 3 15.0
2017-Mar-25 08:03 140 2 gusting 3 14.4
2017-Mar-25 07:58 140 1 gusting 3 13.9
2017-Mar-25 07:53 140 0 gusting 4 13.9
2017-Mar-25 07:48 140 2 gusting 4 13.3
2017-Mar-25 07:43 140 2 gusting 4 12.8
2017-Mar-25 07:38 140 2 gusting 4 12.8
2017-Mar-25 07:33 140 3 gusting 5 12.2
2017-Mar-25 07:28 140 3 gusting 5 12.2
2017-Mar-25 07:23 140 2 gusting 4 11.7
2017-Mar-25 07:18 141 2 gusting 4 11.1
2017-Mar-25 07:13 142 3 gusting 5 11.1
2017-Mar-25 07:08 142 3 gusting 5 10.6
2017-Mar-25 07:03 142 2 gusting 4 10.6
2017-Mar-25 06:58 142 5 gusting 4 10.6
2017-Mar-25 06:53 147 4 gusting 4 10.0
2017-Mar-25 06:48 147 3 gusting 4 10.0
2017-Mar-25 06:43 148 4 gusting 5 10.0
2017-Mar-25 06:38 148 3 gusting 5 10.0
2017-Mar-25 06:33 148 1 gusting 5 9.4
2017-Mar-25 06:28 148 2 gusting 5 9.4
2017-Mar-25 06:23 148 2 gusting 4 8.9
2017-Mar-25 06:18 148 1 gusting 4 8.9
2017-Mar-25 06:13 149 4 gusting 3 8.9
2017-Mar-25 06:08 149 2 gusting 3 8.3
2017-Mar-25 06:03 149 3 gusting 3 8.3
2017-Mar-25 05:58 149 2 gusting 3 8.3
2017-Mar-25 05:53 149 2 gusting 3 8.3
2017-Mar-25 05:48 149 0 gusting 3 8.3
2017-Mar-25 05:43 149 1 gusting 3 8.3
2017-Mar-25 05:38 149 1 gusting 3 8.3
2017-Mar-25 05:33 149 0 gusting 4 8.3
2017-Mar-25 05:28 149 0 gusting 4 8.3
2017-Mar-25 05:23 149 1 gusting 4 8.3
2017-Mar-25 05:18 149 2 gusting 4 8.3
2017-Mar-25 05:13 149 2 gusting 4 8.3
2017-Mar-25 05:08 149 3 gusting 4 8.3
2017-Mar-25 05:03 149 2 gusting 4 8.3
2017-Mar-25 04:58 149 3 gusting 4 8.3
2017-Mar-25 04:53 149 2 gusting 4 8.3
2017-Mar-25 04:48 149 1 gusting 4 8.3
2017-Mar-25 04:43 150 2 gusting 3 8.3
2017-Mar-25 04:39 150 2 gusting 3 8.9
2017-Mar-25 04:34 150 1 gusting 3 8.9
2017-Mar-25 04:29 150 1 gusting 3 8.9
2017-Mar-25 04:24 150 2 gusting 3 8.9
2017-Mar-25 04:19 150 2 gusting 3 8.9
2017-Mar-25 04:14 150 1 gusting 3 8.9
2017-Mar-25 04:09 150 1 gusting 3 9.4
2017-Mar-25 04:04 150 1 gusting 3 9.4
2017-Mar-25 03:59 150 2 gusting 3 9.4
2017-Mar-25 03:54 150 0 gusting 4 9.4
2017-Mar-25 03:49 150 3 gusting 4 9.4
2017-Mar-25 03:44 150 1 gusting 4 9.4
2017-Mar-25 03:39 150 2 gusting 4 9.4
2017-Mar-25 03:34 150 4 9.4
2017-Mar-25 03:29 150 2 9.4
2017-Mar-25 03:24 150 9.4
2017-Mar-25 03:19 150 9.4
2017-Mar-25 03:14 150 9.4
2017-Mar-25 03:09 150 9.4
2017-Mar-25 03:04 150 1 gusting 5 9.4
2017-Mar-25 02:59 150 9.4
2017-Mar-25 02:54 150 10.0
2017-Mar-25 02:49 150 2 gusting 5 10.0
2017-Mar-25 02:44 150 4 gusting 5 10.0
2017-Mar-25 02:39 149 0 gusting 5 10.0
2017-Mar-25 02:34 149 1 gusting 5 10.0
2017-Mar-25 02:29 149 2 gusting 5 10.0
2017-Mar-25 02:24 149 3 gusting 5 10.0
2017-Mar-25 02:19 149 2 gusting 5 10.0
2017-Mar-25 02:14 149 2 gusting 5 10.0
2017-Mar-25 02:09 149 1 gusting 5 10.0
2017-Mar-25 02:04 149 5 gusting 6 10.0
2017-Mar-25 01:59 149 4 gusting 6 10.6
2017-Mar-25 01:54 149 4 gusting 6 10.6
2017-Mar-25 01:49 149 4 gusting 6 10.6
2017-Mar-25 01:44 149 4 gusting 6 10.6
2017-Mar-25 01:39 150 3 gusting 6 10.6
2017-Mar-25 01:34 150 4 gusting 6 10.6
2017-Mar-25 01:29 151 5 gusting 6 10.6
2017-Mar-25 01:24 152 4 gusting 6 10.6
2017-Mar-25 01:19 152 6 gusting 6 10.6
2017-Mar-25 01:14 153 5 gusting 6 10.6
2017-Mar-25 01:09 154 3 gusting 6 10.6
2017-Mar-25 01:04 154 3 gusting 6 10.6
2017-Mar-25 00:59 154 4 gusting 6 10.6
2017-Mar-25 00:54 154 4 gusting 4 10.6
2017-Mar-25 00:49 163 5 gusting 4 10.6
2017-Mar-25 00:44 166 3 gusting 5 10.6
2017-Mar-25 00:39 166 2 gusting 5 10.6
2017-Mar-25 00:34 166 3 gusting 5 10.6
2017-Mar-25 00:29 166 2 gusting 5 10.6
2017-Mar-25 00:24 167 4 gusting 5 10.6
2017-Mar-25 00:19 167 3 gusting 5 10.6
2017-Mar-25 00:14 167 3 gusting 5 10.6
2017-Mar-25 00:09 167 2 gusting 5 11.1
2017-Mar-25 00:04 167 3 gusting 5 11.1
2017-Mar-24 23:59 167 3 gusting 5 11.1
2017-Mar-24 23:54 167 3 gusting 6 11.1
2017-Mar-24 23:49 167 2 gusting 6 11.1
2017-Mar-24 23:44 167 2 gusting 6 11.1
2017-Mar-24 23:39 167 4 gusting 6 11.1
2017-Mar-24 23:34 167 4 gusting 6 11.1
2017-Mar-24 23:29 169 3 gusting 6 11.1
2017-Mar-24 23:24 169 4 gusting 5 11.1
2017-Mar-24 23:19 169 3 gusting 5 11.1
2017-Mar-24 23:14 171 4 gusting 5 11.1
2017-Mar-24 23:09 171 3 gusting 5 11.1
2017-Mar-24 23:04 172 5 gusting 6 11.7
2017-Mar-24 22:59 173 4 gusting 6 11.7
2017-Mar-24 22:54 173 3 gusting 6 11.7
2017-Mar-24 22:49 175 3 gusting 6 11.7
2017-Mar-24 22:44 175 2 gusting 5 11.7
2017-Mar-24 22:39 178 4 gusting 5 11.7
2017-Mar-24 22:34 181 1 gusting 5 11.7
2017-Mar-24 22:29 190 3 gusting 5 11.7
2017-Mar-24 22:24 194 2 gusting 4 11.7
2017-Mar-24 22:19 194 1 gusting 4 11.7
2017-Mar-24 22:14 199 2 gusting 4 11.7
2017-Mar-24 22:09 200 1 gusting 4 12.2
2017-Mar-24 22:04 200 3 gusting 4 12.2
2017-Mar-24 21:59 202 1 gusting 4 12.2
2017-Mar-24 21:54 203 1 gusting 3 12.2
2017-Mar-24 21:49 206 1 gusting 3 12.2
2017-Mar-24 21:44 207 12.2
2017-Mar-24 21:39 207 1 gusting 1 12.2
2017-Mar-24 21:34 209 12.2
2017-Mar-24 21:28 209 12.2
2017-Mar-24 21:23 209 0 12.8
2017-Mar-24 21:18 209 12.8
2017-Mar-24 21:14 209 12.8
2017-Mar-24 21:09 209 12.8
2017-Mar-24 21:04 209 12.8
2017-Mar-24 20:58 209 12.8
2017-Mar-24 20:53 209 12.8
2017-Mar-24 20:48 209 12.8
2017-Mar-24 20:43 209 12.8
2017-Mar-24 20:38 209 12.8
2017-Mar-24 20:33 209 12.8
2017-Mar-24 20:28 209 13.3
2017-Mar-24 20:23 209 13.3
2017-Mar-24 20:18 209 0 13.3
2017-Mar-24 20:13 270 13.3
2017-Mar-24 20:08 270 13.3
2017-Mar-24 20:03 270 13.9
2017-Mar-24 19:58 270 13.9
2017-Mar-24 19:53 270 13.9
2017-Mar-24 19:48 270 14.4
2017-Mar-24 19:43 270 14.4
2017-Mar-24 19:38 270 14.4
2017-Mar-24 19:33 270 14.4
2017-Mar-24 19:28 270 14.4
2017-Mar-24 19:23 270 15.0
2017-Mar-24 19:18 270 15.0
2017-Mar-24 19:13 270 15.0
2017-Mar-24 19:08 270 15.0
2017-Mar-24 19:03 270 15.0
2017-Mar-24 18:58 271 3 gusting 1 15.0
2017-Mar-24 18:53 271 15.0
2017-Mar-24 18:48 271 15.0
2017-Mar-24 18:43 271 15.6
2017-Mar-24 18:38 271 15.6
2017-Mar-24 18:33 271 15.6
2017-Mar-24 18:28 271 15.6
2017-Mar-24 18:23 271 1 gusting 4 15.6
2017-Mar-24 18:18 272 1 gusting 4 15.6
2017-Mar-24 18:13 272 3 gusting 2 16.1
2017-Mar-24 18:08 273 2 gusting 2 16.1
2017-Mar-24 18:03 273 2 gusting 5 16.1
2017-Mar-24 17:58 273 1 gusting 5 16.1
2017-Mar-24 17:53 273 1 gusting 6 16.1
2017-Mar-24 17:48 273 2 gusting 6 16.1
2017-Mar-24 17:43 273 3 gusting 6 16.1
2017-Mar-24 17:38 265 3 gusting 6 16.7
2017-Mar-24 17:33 275 2 gusting 6 16.7
2017-Mar-24 17:28 284 3 gusting 6 16.7
2017-Mar-24 17:23 281 5 gusting 6 16.7
2017-Mar-24 17:18 270 1 gusting 6 16.7
2017-Mar-24 17:13 279 4 gusting 7 17.2
2017-Mar-24 17:08 267 5 gusting 7 17.2
2017-Mar-24 17:03 257 2 gusting 7 17.2
2017-Mar-24 16:58 278 1 gusting 7 17.2
2017-Mar-24 16:53 273 6 gusting 6 17.8
2017-Mar-24 16:48 279 5 gusting 6 17.8
2017-Mar-24 16:43 263 4 gusting 8 17.8
2017-Mar-24 16:38 272 5 gusting 8 17.8
2017-Mar-24 16:33 273 2 gusting 9 17.8
2017-Mar-24 16:28 270 4 gusting 9 17.8
2017-Mar-24 16:23 252 0 gusting 8 18.3
2017-Mar-24 16:18 265 4 gusting 8 18.3
2017-Mar-24 16:13 271 1 gusting 10 18.3
2017-Mar-24 16:08 268 8 gusting 10 18.3
2017-Mar-24 16:02 258 6 gusting 10 18.3
2017-Mar-24 15:55 268 3 gusting 10 18.3
2017-Mar-24 15:50 280 6 gusting 9 18.9
2017-Mar-24 15:45 273 3 gusting 9 18.9
2017-Mar-24 15:40 258 3 gusting 9 18.9
2017-Mar-24 15:35 333 6 gusting 9 18.9
2017-Mar-24 15:30 274 5 gusting 11 18.9
2017-Mar-24 15:25 279 4 gusting 11 18.9
2017-Mar-24 15:20 276 3 gusting 9 19.4
2017-Mar-24 15:15 278 5 gusting 9 19.4
2017-Mar-24 15:10 280 8 gusting 11 19.4
2017-Mar-24 15:05 275 4 gusting 11 19.4
2017-Mar-24 15:00 270 6 gusting 11 19.4
2017-Mar-24 14:55 272 7 gusting 11 19.4
2017-Mar-24 14:50 289 6 gusting 10 20.0
2017-Mar-24 14:45 269 3 gusting 10 20.6
2017-Mar-24 14:40 264 5 gusting 7 21.1
2017-Mar-24 14:35 293 4 gusting 7 21.7
2017-Mar-24 14:30 286 4 gusting 4 22.2
2017-Mar-24 14:25 312 3 gusting 4 22.8
2017-Mar-24 14:20 349 0 gusting 6 22.2
2017-Mar-24 14:15 349 22.2
2017-Mar-24 14:10 346 4 gusting 6 22.2
2017-Mar-24 14:05 337 3 gusting 6 22.2
2017-Mar-24 13:55 355 3 gusting 6 21.7
2017-Mar-24 13:50 013 21.7
2017-Mar-24 13:40 355 3 gusting 4 21.7
2017-Mar-24 13:35 005 3 gusting 4 21.1
2017-Mar-24 13:30 346 3 gusting 6 21.1
2017-Mar-24 13:25 355 4 gusting 6 21.1
2017-Mar-24 13:15 018 4 gusting 6 21.1
2017-Mar-24 13:10 005 1 gusting 9 21.1
2017-Mar-24 13:05 026 2 gusting 9 21.7
2017-Mar-24 13:00 097 1 gusting 8 21.1
2017-Mar-24 12:55 005 3 gusting 8 21.7
2017-Mar-24 12:50 009 4 gusting 8 21.7
2017-Mar-24 12:45 346 6 gusting 8 21.1
2017-Mar-24 12:40 005 3 gusting 8 21.1
2017-Mar-24 12:35 024 1 gusting 8 21.1
2017-Mar-24 12:30 015 3 gusting 7 21.1
2017-Mar-24 12:25 017 3 gusting 7 21.1
2017-Mar-24 12:20 015 3 gusting 7 21.1
2017-Mar-24 12:15 022 5 gusting 7 21.1
2017-Mar-24 12:10 005 6 gusting 8 21.1
2017-Mar-24 12:05 026 0 gusting 8 20.6
2017-Mar-24 12:00 025 1 gusting 7 20.6
2017-Mar-24 11:55 355 4 gusting 7 20.6
2017-Mar-24 11:50 010 2 gusting 6 20.6
2017-Mar-24 11:45 355 3 gusting 6 20.6
2017-Mar-24 11:40 005 20.0
2017-Mar-24 11:20 005 5 gusting 6 20.0
2017-Mar-24 11:15 005 1 gusting 6 19.4
2017-Mar-24 11:10 005 4 gusting 8 19.4
2017-Mar-24 11:00 347 5 gusting 6 19.4
2017-Mar-24 10:55 350 2 gusting 6 19.4
2017-Mar-24 10:50 346 0 gusting 6 18.9
2017-Mar-24 10:45 350 2 gusting 6 18.9
2017-Mar-24 10:40 005 3 gusting 6 18.9
2017-Mar-24 10:35 015 18.9
2017-Mar-24 10:30 013 0 gusting 6 18.9
2017-Mar-24 10:25 013 1 gusting 6 18.3
2017-Mar-24 10:20 013 1 gusting 6 18.3
2017-Mar-24 10:15 016 1 gusting 6 18.3
2017-Mar-24 10:10 020 3 gusting 5 18.3
2017-Mar-24 10:05 024 1 gusting 5 18.3
2017-Mar-24 10:00 026 0 gusting 5 17.8
2017-Mar-24 09:55 033 17.8
2017-Mar-24 09:50 033 3 gusting 4 17.8
2017-Mar-24 09:45 050 2 gusting 4 17.8
2017-Mar-24 09:40 051 2 gusting 3 17.8
2017-Mar-24 09:35 051 2 gusting 3 17.2
2017-Mar-24 09:30 055 0 gusting 5 17.2
2017-Mar-24 09:25 055 17.2
2017-Mar-24 09:20 016 16.7
2017-Mar-24 09:15 016 0 gusting 6 16.7
2017-Mar-24 09:10 011 3 gusting 3 16.7
2017-Mar-24 09:05 011 4 gusting 3 16.7
2017-Mar-24 09:00 019 16.7
2017-Mar-24 08:54 017 1 gusting 3 16.1
2017-Mar-24 08:50 017 16.1
2017-Mar-24 08:44 017 0 gusting 4 16.1
2017-Mar-24 08:39 017 2 gusting 6 16.1
2017-Mar-24 08:34 020 15.6
2017-Mar-24 08:29 020 0 gusting 4 15.6
2017-Mar-24 08:24 025 5 gusting 4 15.6
2017-Mar-24 08:19 025 15.0
2017-Mar-24 08:14 026 1 gusting 6 15.0
2017-Mar-24 08:09 041 2 gusting 6 15.0
2017-Mar-24 08:04 053 3 gusting 6 14.4
2017-Mar-24 07:59 022 1 gusting 3 14.4
2017-Mar-24 07:54 014 2 gusting 3 14.4
2017-Mar-24 07:49 132 13.9
2017-Mar-24 07:44 134 0 gusting 3 13.9
2017-Mar-24 07:39 134 13.3
2017-Mar-24 07:34 134 12.8
2017-Mar-24 07:29 134 12.8
2017-Mar-24 07:24 134 1 gusting 3 12.2
2017-Mar-24 07:17 134 0 12.2
2017-Mar-24 07:12 134 11.7
2017-Mar-24 07:07 134 11.7
2017-Mar-24 07:02 134 11.7
2017-Mar-24 06:57 134 11.1
2017-Mar-24 06:52 134 0 gusting 3 11.1
2017-Mar-24 06:47 134 10.6
2017-Mar-24 06:42 134 10.6
2017-Mar-24 06:37 134 10.6
2017-Mar-24 06:32 134 10.0
2017-Mar-24 06:27 134 10.0
2017-Mar-24 06:22 134 10.0
2017-Mar-24 06:17 134 0 gusting 5 10.0
2017-Mar-24 06:12 134 1 gusting 2 10.0
2017-Mar-24 06:07 134 2 gusting 2 10.0
2017-Mar-24 06:02 134 0 gusting 2 10.0
2017-Mar-24 05:57 134 10.0
2017-Mar-24 05:52 134 1 gusting 5 10.0
2017-Mar-24 05:47 134 10.0
2017-Mar-24 05:42 134 2 gusting 5 9.4
2017-Mar-24 05:37 134 1 gusting 5 9.4
2017-Mar-24 05:32 134 4 gusting 6 9.4
2017-Mar-24 05:27 134 4 gusting 6 9.4
2017-Mar-24 05:22 135 4 gusting 3 9.4
2017-Mar-24 05:17 142 4 gusting 3 10.0
2017-Mar-24 05:12 175 1 gusting 2 10.0
2017-Mar-24 05:07 175 10.0
2017-Mar-24 05:02 175 1 gusting 4 10.0
2017-Mar-24 04:57 175 10.0
2017-Mar-24 04:52 175 1 gusting 6 10.0
2017-Mar-24 04:44 175 2 gusting 6 9.4
2017-Mar-24 04:39 175 0 gusting 6 9.4
2017-Mar-24 04:29 189 3 9.4
2017-Mar-24 04:24 189 9.4
2017-Mar-24 04:19 189 9.4
2017-Mar-24 04:14 189 9.4
2017-Mar-24 04:09 189 9.4
2017-Mar-24 04:04 189 10.0
2017-Mar-24 03:59 189 10.0
2017-Mar-24 03:54 189 10.0
2017-Mar-24 03:49 189 10.0
2017-Mar-24 03:44 189 10.0
2017-Mar-24 03:39 189 10.0
2017-Mar-24 03:30 189 10.0
2017-Mar-24 03:25 189 10.0
2017-Mar-24 03:20 189 10.0
2017-Mar-24 03:15 189 10.0
2017-Mar-24 03:10 189 10.0
2017-Mar-24 03:05 189 10.0
2017-Mar-24 03:00 189 10.0
2017-Mar-24 02:55 189 10.0
2017-Mar-24 02:50 189 10.0
2017-Mar-24 02:45 189 10.0
2017-Mar-24 02:40 189 10.0
2017-Mar-24 02:35 189 10.0
2017-Mar-24 02:30 189 1 gusting 3 10.0
2017-Mar-24 02:25 189 2 gusting 3 10.0
2017-Mar-24 02:20 189 2 gusting 4 10.0
2017-Mar-24 02:15 189 0 gusting 4 10.0
2017-Mar-24 02:10 189 10.0
2017-Mar-24 02:05 189 10.0
2017-Mar-24 02:00 189 10.0
2017-Mar-24 01:55 189 10.0
2017-Mar-24 01:50 189 10.0
2017-Mar-24 01:45 189 10.0
2017-Mar-24 01:40 189 10.0
2017-Mar-24 01:35 189 10.0
2017-Mar-24 01:30 189 10.0
2017-Mar-24 01:25 189 10.0
2017-Mar-24 01:20 189 10.0
2017-Mar-24 01:15 189 10.0
2017-Mar-24 01:10 189 10.0
2017-Mar-24 01:05 189 10.0
2017-Mar-24 01:00 189 9.4
2017-Mar-24 00:55 189 9.4
2017-Mar-24 00:50 189 9.4
2017-Mar-24 00:45 189 9.4
2017-Mar-24 00:40 189 9.4
2017-Mar-24 00:35 189 9.4
2017-Mar-24 00:30 189 9.4
2017-Mar-24 00:25 189 10.0
2017-Mar-24 00:20 189 10.0
2017-Mar-24 00:15 189 9.4
2017-Mar-24 00:05 189 10.0
2017-Mar-24 00:00 189 10.0
2017-Mar-23 23:50 189 10.0
2017-Mar-23 23:45 189 10.0
2017-Mar-23 23:40 189 10.0
2017-Mar-23 23:35 189 10.6
2017-Mar-23 23:30 189 10.6
2017-Mar-23 23:25 189 10.6
2017-Mar-23 23:20 189 10.6
2017-Mar-23 23:15 189 10.6
2017-Mar-23 23:10 189 10.0
2017-Mar-23 23:05 189 10.0
2017-Mar-23 23:00 189 10.0
2017-Mar-23 22:55 189 10.0
2017-Mar-23 22:50 189 10.0
2017-Mar-23 22:45 189 10.0
2017-Mar-23 22:40 189 10.6
2017-Mar-23 22:35 189 10.6
2017-Mar-23 22:30 189 2 gusting 4 10.6
2017-Mar-23 22:25 189 2 gusting 4 10.6
2017-Mar-23 22:20 189 2 gusting 4 10.6
2017-Mar-23 22:15 189 2 gusting 4 10.6
2017-Mar-23 22:10 189 1 gusting 4 10.6
2017-Mar-23 22:05 189 2 gusting 4 10.6
2017-Mar-23 22:00 189 3 gusting 4 11.1
2017-Mar-23 21:55 189 1 gusting 4 11.1
2017-Mar-23 21:50 190 3 11.1
2017-Mar-23 21:45 191 11.1
2017-Mar-23 21:40 191 11.1
2017-Mar-23 21:35 191 11.1
2017-Mar-23 21:27 191 0 gusting 2 11.7
2017-Mar-23 21:22 191 1 gusting 3 11.7
2017-Mar-23 21:17 191 11.7
2017-Mar-23 21:12 191 0 gusting 1 11.7
2017-Mar-23 21:07 191 3 gusting 1 11.7
2017-Mar-23 21:02 191 11.7
2017-Mar-23 20:57 191 0 gusting 4 11.7
2017-Mar-23 20:52 191 0 gusting 4 11.7
2017-Mar-23 20:47 191 2 gusting 4 11.7
2017-Mar-23 20:42 191 1 gusting 3 11.7
2017-Mar-23 20:37 192 1 gusting 3 11.7
2017-Mar-23 20:32 192 1 gusting 3 12.2
2017-Mar-23 20:27 192 1 gusting 3 12.2
2017-Mar-23 20:22 192 12.2
2017-Mar-23 20:17 192 2 gusting 0 12.2
2017-Mar-23 20:13 192 2 12.2
2017-Mar-23 20:08 192 12.2
2017-Mar-23 20:03 192 12.2
2017-Mar-23 19:58 192 12.2
2017-Mar-23 19:53 192 12.8
2017-Mar-23 19:48 192 12.8
2017-Mar-23 19:43 192 12.8
2017-Mar-23 19:38 192 12.8
2017-Mar-23 19:33 192 13.3
2017-Mar-23 19:28 192 13.3
2017-Mar-23 19:23 192 13.9
2017-Mar-23 19:18 192 13.9
2017-Mar-23 19:13 192 14.4
2017-Mar-23 19:08 192 14.4
2017-Mar-23 19:03 192 14.4
2017-Mar-23 18:58 192 14.4
2017-Mar-23 18:53 192 14.4
2017-Mar-23 18:48 192 14.4
2017-Mar-23 18:43 192 14.4
2017-Mar-23 18:38 192 14.4
2017-Mar-23 18:30 192 15.0
2017-Mar-23 18:25 192 15.0
2017-Mar-23 18:20 192 15.0
2017-Mar-23 18:10 192 15.6
2017-Mar-23 18:05 192 15.6
2017-Mar-23 18:00 192 15.6
2017-Mar-23 17:55 192 16.1
2017-Mar-23 17:45 192 16.1
2017-Mar-23 17:40 192 16.1
2017-Mar-23 17:35 192 16.7
2017-Mar-23 17:30 192 16.7
2017-Mar-23 17:25 192 16.7
2017-Mar-23 17:20 192 1 gusting 4 16.7
2017-Mar-23 17:15 192 0 gusting 4 16.7
2017-Mar-23 17:10 192 2 gusting 4 16.7
2017-Mar-23 17:05 192 16.7
2017-Mar-23 17:00 192 2 gusting 4 17.2
2017-Mar-23 16:55 193 1 gusting 4 17.2
2017-Mar-23 16:50 197 17.2
2017-Mar-23 16:45 200 17.2
2017-Mar-23 16:40 213 2 gusting 5 17.2
2017-Mar-23 16:35 217 0 gusting 5 17.2
2017-Mar-23 16:30 217 0 gusting 5 17.8
2017-Mar-23 16:25 197 2 gusting 5 17.8
2017-Mar-23 16:20 196 0 gusting 6 17.8
2017-Mar-23 16:15 182 0 gusting 6 17.8
2017-Mar-23 16:10 186 1 gusting 7 17.8
2017-Mar-23 16:05 166 3 gusting 7 17.8
2017-Mar-23 16:00 198 6 gusting 6 17.8
2017-Mar-23 15:55 178 5 gusting 6 17.8
2017-Mar-23 15:50 169 1 gusting 10 17.8
2017-Mar-23 15:45 178 1 gusting 10 17.8
2017-Mar-23 15:40 182 4 gusting 8 17.8
2017-Mar-23 15:35 190 3 gusting 8 17.8
2017-Mar-23 15:30 171 6 gusting 11 17.8
2017-Mar-23 15:25 150 6 gusting 11 18.3
2017-Mar-23 15:20 163 6 gusting 10 18.3
2017-Mar-23 15:15 155 5 gusting 10 18.3
2017-Mar-23 15:10 178 6 gusting 13 18.3
2017-Mar-23 15:05 165 6 gusting 13 18.3
2017-Mar-23 15:00 176 3 gusting 13 17.8
2017-Mar-23 14:55 190 3 gusting 13 18.3
2017-Mar-23 14:50 159 1 gusting 9 18.3
2017-Mar-23 14:45 198 4 gusting 9 18.3
2017-Mar-23 14:40 186 2 gusting 11 18.3
2017-Mar-23 14:35 153 8 gusting 11 18.3
2017-Mar-23 14:30 187 2 gusting 8 17.8
2017-Mar-23 14:25 169 5 gusting 8 17.8
2017-Mar-23 14:20 182 3 gusting 13 17.8
2017-Mar-23 14:15 171 1 gusting 13 17.8
2017-Mar-23 14:10 175 5 gusting 16 17.8
2017-Mar-23 14:05 161 7 gusting 16 18.3
2017-Mar-23 14:00 161 7 gusting 14 18.3
2017-Mar-23 13:55 199 6 gusting 14 18.3
2017-Mar-23 13:50 192 5 gusting 13 18.3
2017-Mar-23 13:45 175 2 gusting 13 18.3
2017-Mar-23 13:40 206 6 gusting 10 18.3
2017-Mar-23 13:35 146 11 gusting 10 18.3
2017-Mar-23 13:30 159 6 gusting 13 18.3
2017-Mar-23 13:25 191 2 gusting 13 17.8
2017-Mar-23 13:20 177 1 gusting 11 17.8
2017-Mar-23 13:15 184 3 gusting 11 17.8
2017-Mar-23 13:10 194 2 gusting 13 17.8
2017-Mar-23 13:05 171 5 gusting 13 17.8
2017-Mar-23 13:00 148 8 gusting 12 17.8
2017-Mar-23 12:55 138 11 gusting 12 17.8
2017-Mar-23 12:50 176 4 gusting 9 17.8
2017-Mar-23 12:44 173 5 gusting 9 17.8
2017-Mar-23 12:40 187 4 gusting 8 17.8
2017-Mar-23 12:35 163 8 gusting 8 17.8
2017-Mar-23 12:29 165 7 gusting 12 17.8
2017-Mar-23 12:24 179 5 gusting 12 17.8
2017-Mar-23 12:19 149 8 gusting 9 17.8
2017-Mar-23 12:14 142 1 gusting 9 17.8
2017-Mar-23 12:09 143 6 gusting 9 17.8
2017-Mar-23 12:04 167 2 gusting 9 17.8
2017-Mar-23 11:59 141 6 gusting 6 17.2
2017-Mar-23 11:54 137 5 gusting 6 17.2
2017-Mar-23 11:49 169 5 gusting 6 17.2
2017-Mar-23 11:44 159 4 gusting 6 17.2
2017-Mar-23 11:39 140 4 gusting 7 17.2
2017-Mar-23 11:34 137 6 gusting 7 17.2
2017-Mar-23 11:29 138 3 gusting 8 17.2
2017-Mar-23 11:24 144 6 gusting 8 17.2
2017-Mar-23 11:19 171 4 gusting 9 17.2
2017-Mar-23 11:14 165 2 gusting 9 17.2
2017-Mar-23 11:09 171 5 gusting 12 17.2
2017-Mar-23 11:04 150 8 gusting 12 17.2
2017-Mar-23 10:59 169 6 gusting 10 17.2
2017-Mar-23 10:54 158 6 gusting 10 17.2
2017-Mar-23 10:49 172 6 gusting 12 17.2
2017-Mar-23 10:44 165 6 gusting 12 16.7
2017-Mar-23 10:39 142 7 gusting 13 16.7
2017-Mar-23 10:34 126 4 gusting 13 16.7
2017-Mar-23 10:29 174 5 gusting 12 16.7
2017-Mar-23 10:24 158 5 gusting 12 16.7
2017-Mar-23 10:19 141 6 gusting 13 16.7
2017-Mar-23 10:14 159 9 gusting 13 16.7
2017-Mar-23 10:09 136 9 gusting 12 16.1
2017-Mar-23 10:04 161 6 gusting 12 16.1
2017-Mar-23 09:59 161 8 gusting 12 16.1
2017-Mar-23 09:54 158 7 gusting 12 16.1
2017-Mar-23 09:49 150 6 gusting 9 16.1
2017-Mar-23 09:44 170 3 gusting 9 16.1
2017-Mar-23 09:39 144 6 gusting 7 16.1
2017-Mar-23 09:34 155 5 gusting 7 16.1
2017-Mar-23 09:29 175 5 gusting 6 15.6
2017-Mar-23 09:24 161 6 gusting 6 15.6
2017-Mar-23 09:19 200 2 gusting 5 15.6
2017-Mar-23 09:14 131 3 gusting 5 15.6
2017-Mar-23 09:09 124 4 gusting 4 15.6
2017-Mar-23 09:04 124 15.6